Regional Weather Roundup
Issued by NWS

Home | Current Version | Previous Version | Graphics & Text | Print | Product List | Glossary On
Versions: 1 2 3 4 5 6 7 8 9 10 11 12 13 14 15 16 17 18 19 20 21 22 23 24 25 26 27 28 29 30 31 32 33 34 35 36 37 38 39 40 41 42 43 44 45 46 47 48 49 50
000
ASUS43 KBIS 200110
RWRND

NORTH DAKOTA REGIONAL WEATHER ROUNDUP
NATIONAL WEATHER SERVICE BISMARCK ND
800 PM CDT TUE SEP 19 2017

NOTE: "FAIR" INDICATES FEW OR NO CLOUDS BELOW 12,000 FEET WITH NO
SIGNIFICANT WEATHER AND/OR OBSTRUCTIONS TO VISIBILITY.


NDZ001>003-009>011-017-200200-
NORTHWEST NORTH DAKOTA

CITY           SKY/WX    TMP DP  RH WIND       PRES   REMARKS
WILLISTON      LGT RAIN  57  41  55 W14       29.56R
MINOT          LGT RAIN  60  54  80 SW13G22   29.48S
MINOT AFB      LGT RAIN  60  51  73 W15       29.46S
$$

NDZ018>021-031>035-040>046-200200-
SOUTHWEST NORTH DAKOTA

CITY           SKY/WX    TMP DP  RH WIND       PRES   REMARKS
BISMARCK       MOCLDY    61  45  55 W22G32    29.54R
DICKINSON      LGT RAIN  50  48  93 W14       29.60S
GARRISON         N/A     55  54  96 W12       29.53R
HETTINGER ARPT LGT RAIN  50  47  89 W12       29.65R
$$

NDZ004>008-012>016-024-026-027-054-200200-
NORTHEAST NORTH DAKOTA

CITY           SKY/WX    TMP DP  RH WIND       PRES   REMARKS
GRAND FORKS    TSTM      68  66  93 E22       29.47R
GRND FRKS AFB  PTCLDY    67  64  90 SE35G46   29.37F
DEVILS LAKE    CLOUDY    65  63  93 S10       29.44S
$$

NDZ022-023-025-028>030-036>039-047>053-200200-
SOUTHEAST NORTH DAKOTA

CITY           SKY/WX    TMP DP  RH WIND       PRES   REMARKS
FARGO          LGT RAIN  65  63  93 S7        29.46R
JAMESTOWN      TSTM      63  62  97 SE10      29.42R
$$





USA.gov is the U.S. government's official web portal to all federal, state and local government web resources and services.